Regional Weather Roundup
Issued by NWS

Home | Current Version | Previous Version | Graphics & Text | Print | Product List | Glossary On
Versions: 1 2 3 4 5 6 7 8 9 10 11 12 13 14 15 16 17 18 19 20 21 22 23 24 25 26 27 28 29 30 31 32 33 34 35 36 37 38 39 40 41 42 43 44 45 46 47 48 49 50
000
ASUS43 KOAX 290302
RWRNE
WEATHER ROUNDUP FOR NEBRASKA
NATIONAL WEATHER SERVICE OMAHA NE
1000 PM CDT THU MAY 28 2015

NOTES: SATELLITE DATA IS BEING USED TO AUGMENT CLOUD COVER ABOVE
       12000 FEET.
       "FAIR" INDICATES FEW OR NO CLOUDS BELOW 12,000 FEET WITH NO
       SIGNIFICANT WEATHER AND/OR OBSTRUCTIONS TO VISIBILITY.

  * THESE STATIONS DO NOT REPORT WEATHER SUCH AS RAIN...SNOW OR FOG.

NEZ001>004-019>022-054>056-290400-
NEBRASKA PANHANDLE

CITY           SKY/WX    TMP DP  RH WIND       PRES   REMARKS
SCOTTSBLUFF    TSTM      59  50  72 W17G25    30.06R
ALLIANCE       CLOUDY    56  53  90 E14       29.98F
CHADRON        CLOUDY    57  53  86 NE6       30.00R
KIMBALL          N/A    N/A N/A N/A MISG        N/A
SIDNEY         CLOUDY    54  51  90 SW9       30.01R
$$

NEZ057>060-069>072-079>082-290400-
SOUTHWEST NEBRASKA

CITY           SKY/WX    TMP DP  RH WIND       PRES   REMARKS
NORTH PLATTE   LGT RAIN  58  55  90 E13       29.91F
IMPERIAL       CLOUDY    56  52  86 S7        29.93R
LEXINGTON      CLOUDY    60  56  84 NW15      29.94F
MCCOOK         CLOUDY    57  55  93 SE7       29.93F
$$

NEZ005>010-023>029-035>040-094-290400-
NORTH CENTRAL NEBRASKA

CITY           SKY/WX    TMP DP  RH WIND       PRES   REMARKS
VALENTINE      CLOUDY    65  55  70 N12       29.94R
AINSWORTH      CLOUDY    64  57  80 S14       29.91R
BROKEN BOW     TSTM      61  57  87 NW17      29.92R
ORD            CLOUDY    68  63  84 SE7       29.87F
$$

NEZ041-046>049-061>064-073>077-083>087-290400-
SOUTH CENTRAL NEBRASKA

CITY           SKY/WX    TMP DP  RH WIND       PRES   REMARKS
GRAND ISLAND   CLOUDY    71  60  68 S9        29.91F
HASTINGS       CLOUDY    70  63  78 S6        29.92F
KEARNEY *      CLOUDY    68  55  64 S22G29    29.92S THUNDER
$$

NEZ011>018-030>034-042>045-290400-
NORTHEAST NEBRASKA

CITY           SKY/WX    TMP DP  RH WIND       PRES   REMARKS
NORFOLK        CLOUDY    70  65  84 S13       29.90F
BLAIR          MOCLDY    67  62  84 S8        29.95S
COLUMBUS *     CLOUDY    70  63  78 SE9       29.92F
FREMONT        CLOUDY    69  64  83 SE9       29.94S
TEKAMAH        CLOUDY    68  64  87 S12       29.93R
$$

NEZ050>053-065>068-078-088>093-290400-
SOUTHEAST NEBRASKA

CITY           SKY/WX    TMP DP  RH WIND       PRES   REMARKS
LINCOLN        CLOUDY    69  65  86 S8        29.94R
OMAHA EPPLEY   CLOUDY    69  64  84 SE9       29.94R
FALLS CITY     MOCLDY    67  63  87 SE7       29.96R
NEBRASKA CITY  PTCLDY    65  63  93 S6        29.96R
$$

NEZ044-045-051>053-067-290400-
OMAHA AREA

CITY           SKY/WX    TMP DP  RH WIND       PRES   REMARKS
OMAHA EPPLEY   CLOUDY    69  64  84 SE9       29.94R
BLAIR          MOCLDY    67  62  84 S8        29.95S
FREMONT        CLOUDY    69  64  83 SE9       29.94S
OFFUTT AFB     MOCLDY    67  63  86 SE5       29.94R
WAHOO          FAIR      68  64  87 SE6       29.94S
$$



USA.gov is the U.S. government's official web portal to all federal, state and local government web resources and services.